www.pogodaiklimat.ru

Погода и климат >> Архив погоды >> Алжир >> Illizi


ПОГОДА в Illizi

  • Прогноз погоды в Illizi
  • Монитор погоды в Illizi
  • Климат города

АРХИВ ПОГОДЫ в Illizi

Время (UTC), дата Ветер
(напр.,м/с)
 
Видим.   Явления Облачность Т
(С)
Тd
(С)
f
(%)
Тe
(С)
Тes
(С)
Комфортность P
(гПа)
Po
(гПа)
Тmin
(С)
Tmax
(С)
R
(мм)
R24
(мм)
S
(см)
03 8.08 штиль 0 8000 м 6/6 1200 м
[Cu Sc]
+29.5 +12.7 36 +31 +31 жарко 1008.8 1009.0
06 8.08 В 4 8000 м 6/6 1200 м
[Cu Sc]
+29.9 +12.6 35 +31 +31 жарко 1009.5 1010.0 +29.2
09 8.08 В 6 10 км 8/5 1380 м
[Cu med, cong Ac trans]
+33.5 +14.4 32 +35 +37 душно 1010.9 1011.0
12 8.08 штиль 0 10 км 8/5 1380 м
[Cu med, cong Ac trans]
+36.7 +15.5 28 +38 +47 очень
душно
1009.7 1010.0
15 8.08 штиль 0 10 км 8/5 1380 м
[Cu med, cong Ac trans]
+37.5 +14.5 26 +39 +42 очень
душно
1007.5 1008.0
18 8.08 СВ 5 8000 м 5/0
[Ac trans Ci sp]
+36.0 +15.1 29 +38 +38 очень
душно
1007.4 1007.0 +38.5
21 8.08 СВ 2 8000 м 4/0
[Ci sp]
+34.8 +16.3 33 +37 +37 очень
душно
1009.2 1009.0
00 9.08 СВ 3 8000 м 4/0
[Ci sp]
+32.0 +14.6 35 +34 +34 душно 1008.7 1009.0
03 9.08 СВ 3 8000 м 4/0
[Ci sp]
+30.0 +13.9 37 +32 +32 жарко 1009.0 1009.0
06 9.08 СЗ 3 10 км 8/4 1380 м
[Cu med, cong Ac trans]
+30.3 +14.3 38 +32 +33 жарко 1010.9 1011.0 +29.8
09 9.08 штиль 0 10 км 8/4 1380 м
[Sc Ac trans]
+35.6 +14.4 28 +37 +44 душно 1010.6 1011.0
12 9.08 С 4 10 км 6/4 1380 м
[Cu Sc Ac trans]
+39.7 +14.8 23 +41 +47 опасность
перегрева
1009.5 1010.0
15 9.08 С 4 10 км 5/4 1200 м
[Cu Sc Ac trans]
+41.1 +10.7 16 +40 +43 очень
жарко
1007.3 1007.0
18 9.08 ЮВ 3 9000 м 5/4 1200 м
[Cu Sc Ci fib]
+38.3 +12.2 21 +38 +38 очень
жарко
1007.7 1008.0 +41.7
21 9.08 ЮВ 8 5000 м пыльный позёмок 3/1 1380 м
[Cu med, cong Ac trans]
+34.0 +13.6 29 +35 +35 очень
жарко
1010.5 1011.0
00 10.08 Ю 3 5000 м ясно +31.8 +15.8 38 +34 +34 душно 1008.4 980.7
03 10.08 СВ 4 6000 м ясно +30.8 +15.4 39 +33 +33 душно 1008.2 949.9
06 10.08 В 5 8000 м 4/0
[Ac trans]
+28.8 +16.7 48 +32 +33 душно 1010.3 951.5 +28.4
09 10.08 В 7 8000 м 4/0
[Ac trans]
+36.3 +15.9 30 +38 +41 очень
душно
1011.3 952.7
12 10.08 В 4 7000 м 6/4 1380 м
[Cu med, cong Ac trans]
+38.8 +16.9 28 +41 +48 опасность
перегрева
1010.2 951.7
15 10.08 В 6 7000 м гроза без осадков 6/5 1200 м
[Cb calv Ci fib]
+38.8 +15.4 25 +40 +42 очень
душно
1008.1 949.6
18 10.08 В 5 6000 м {гроза} 8/6 1200 м
[Cu Sc Ci fib]
+38.0 +16.1 28 +40 +40 очень
душно
1008.4 949.6 +41.9
21 10.08 СЗ 6 6000 м гроза без осадков 8/6 1200 м
[Cb calv Ci fib]
+29.7 +18.5 51 +35 +35 очень
душно
1013.6 954.4
00 11.08 штиль 0 8000 м в посл. час гроза {дождь} 8/8 1200 м
[Cu Sc]
+28.3 +22.1 69 +37 +37 очень
душно
1011.0 952.1 3
03 11.08 штиль 0 8000 м 8/8 1200 м
[Cu Sc]
+26.4 +19.8 67 +32 +32 очень
душно
1011.0 951.9
06 11.08 штиль 0 8000 м 8/1 1200 м
[Cu med, cong Ac trans Ci sp]
+26.5 +22.9 81 +35 +36 очень
душно
1012.2 983.3 +26.3 3
09 11.08 штиль 0 8000 м 8/0
[Ac trans Ci sp]
+34.0 +19.3 42 +39 +53 опасность
солнечного
удара
1013.9 1014.0
12 11.08 Ю 3 8000 м 5/0
[Ci sp]
+37.8 +16.2 28 +40 +55 опасность
солнечного
удара
1012.1 1012.0
15 11.08 СВ 3 8000 м 6/4 1200 м
[Cu med, cong Ci fib]
+40.3 +16.2 25 +42 +46 опасность
перегрева
1009.6 980.6
18 11.08 СВ 6 10 км 5/3 1200 м
[Cu med, cong Ci fib]
+38.7 +16.1 27 +41 +41 опасность
перегрева
1009.4 950.4 +40.5
21 11.08 В 3 10 км 5/3 1200 м
[Cu med, cong Ci fib]
+34.6 +15.6 32 +37 +37 очень
душно
1010.7 952.0
00 12.08 штиль 0 10 км ясно +32.4 +14.3 33 +34 +34 очень
жарко
1010.6 952.0
03 12.08 штиль 0 10 км ясно +28.2 +13.0 39 +30 +30 жарко 1010.1 951.4
06 12.08 В 3 10 км ясно +27.5 +19.2 61 +33 +34 очень
душно
1011.2 952.2 +26.3
09 12.08 ЮВ 3 10 км ясно +36.4 +15.8 30 +38 +50 очень
душно
1011.3 952.8
12 12.08 ЮВ 4 10 км ясно +39.5 +14.9 24 +41 +54 опасность
перегрева
1009.9 951.5
15 12.08 СВ 7 10 км ясно +40.4 +13.1 20 +40 +42 очень
жарко
1008.6 950.0
18 12.08 В 6 10 км ясно +38.0 +12.2 21 +37 +37 очень
жарко
1008.3 949.4 +40.9
21 12.08 В 5 10 км ясно +33.7 +12.8 28 +34 +34 очень
жарко
1010.2 951.6
00 13.08 В 4 10 км ясно +30.7 +10.9 29 +31 +31 жарко 1009.7 951.2
03 13.08 ЮВ 2 10 км ясно +27.5 +12.3 39 +29 +29 жарко 1009.5 950.8
06 13.08 В 3 10 км 1/0
[Ac trans]
+27.4 +12.4 39 +29 +30 жарко 1011.1 952.0 +27.0
09 13.08 Ю 6 10 км 1/0
[Ac trans]
+36.5 +11.9 23 +36 +41 очень
жарко
1011.2 952.6
12 13.08 ЮВ 6 10 км ясно +39.2 +12.7 21 +39 +47 очень
жарко
1009.6 951.1
15 13.08 С 5 10 км ясно +40.6 +12.2 19 +40 +45 очень
жарко
1007.4 948.8
18 13.08 В 7 10 км 3/0
[Ac trans]
+38.4 +14.8 25 +39 +39 очень
душно
1007.5 948.7 +41.0
21 13.08 В 6 10 км ясно +34.0 +12.5 27 +34 +34 очень
жарко
1009.0 950.5
00 14.08 ЮВ 3 10 км ясно +31.7 +11.6 29 +32 +32 жарко 1008.9 1009.0
03 14.08 В 3 10 км ясно +29.3 +10.5 31 +29 +29 жарко 1009.0 1029.1
06 14.08 ЮВ 5 10 км ясно +28.0 +10.5 34 +29 +29 жарко 1009.6 1010.0 +26.2
09 14.08 Ю 2 10 км ясно +36.7 +11.5 22 +36 +50 очень
жарко
1009.5 951.0
12 14.08 ЮВ 2 10 км 3/0
[Ac trans]
+40.9 +11.3 17 +40 +57 опасность
солнечного
удара
1008.0 949.8
15 14.08 С 6 10 км 3/0
[Ac trans]
+42.5 +10.5 15 +41 +44 опасность
перегрева
1006.5 948.3
18 14.08 СВ 8 10 км 3/0
[Ac trans]
+39.8 +11.0 18 +39 +39 очень
жарко
1007.1 948.5 +42.5
21 14.08 СВ 7 8000 м ясно +35.0 +11.6 24 +35 +35 очень
жарко
1009.3 950.9
00 15.08 В 6 8000 м ясно +32.0 +11.4 28 +32 +32 жарко 1008.5 950.3

 

Местоположение метеостанции Illizi (Алжир): широта 26.50 долгота 8.42 высота над уровнем моря 544 м.

В архиве по умолчанию представлена погода в Illizi за последнюю неделю. Архивные данные за месяц целиком и за предыдущие месяцы, начиная с января 2011 года, Вы можете получить, выбрав интересующий диапазон дат из раскрывающегося списка и нажав кнопку "Ввод!".


*Определитесь, кто Вы:
робот инопланетянин человек

Внимание! Время в таблицах - всемирное. Для получения местного времени необходимо прибавить поправку, которая в Illizi равна 1 ч.

Смотрите также архив погоды в соседних городах и на ближайших метеорологических станциях:

Погода в Fadnoune (Алжир) (79 км)
Погода в Bordj Haous (Алжир) (186 км)
Погода в In Amenas (Алжир) (210 км)
Погода в Tin Fouye (Алжир) (231 км)
Погода в Djanet (Алжир) (270 км)
Погода в Tinalkoum (Алжир) (278 км)
Погода в Mertouek (Алжир) (383 км)
Погода в Rhourde-Nouss (Алжир) (396 км)
Погода в Ghadames (Ливия) (417 км)
Погода в Moulay Lachen (Алжир) (425 км)

Пояснения к столбцам:

Ветер - указаны скорость ветра в м/с - средняя за 10 мин, порывы в срок и между сроками (в фигурных скобках) и направление, откуда дует ветер: С - северный, СВ - северо-восточный, В - восточный, ЮВ - юго-восточный, Ю - южный, ЮЗ - юго-западный, З - западный, СЗ - северо-западный.
Видимость - горизонтальная дальность видимости в метрах или километрах. При видимости от 1 до 10 км при отсутствии осадков обычно наблюдается дымка, при ухудшении видимости до 1 км и менее - туман. В сухую погоду видимость может ухудшаться дымом, пылью или мглою.
Явления - указаны атмосферные явления, наблюдавшиеся в срок или в последний час перед сроком; фигурными скобками обозначены явления, наблюдавшиеся между сроками (за 1-3 часа до срока); квадратными скобками обозначены град или гололедные отложения с указанием их диаметра в мм.
Облачность - указаны через наклонную черту общая и нижняя облачность в баллах и высота нижней границы облаков в метрах; квадратными скобками обозначены формы облаков: Ci - перистые, Cs - перисто-слоистые, Cc - перисто-кучевые, Ac - высококучевые, As - высокослоистые, Sc - слоисто-кучевые, Ns - слоисто-дождевые, Cu - кучевые, Cb - кучево-дождевые. Подробнее классификацию облаков см. в Атласе облаков (PDF).
T - Температура воздуха - температура, измеренная на высоте 2 м над землей.
Td - Температура точки росы - температура, при понижении до которой содержащийся в воздухе водяной пар достигнет насыщения.
f - Относительная влажность воздуха - влажноcть воздуха, измеренная на высоте 2 м над землей.
Te - Эффективная температура - температура, которую ощущает одетый по сезону человек в тени. Характеристика душности погоды. При расчете учитывается влияние влажности воздуха и скорости ветра на теплоощущения человека.
Tes - Эффективная температура на солнце - температура, которую ощущает человек, с поправкой на солнечный нагрев. Характеристика знойности погоды. Зависит от высоты солнца над горизонтом, облачности и скорости ветра. Ночью, в пасмурную погоду, а также при ветре 12 м/с и более поправка равна нулю.
P - Атмосферное давление - приведенное к уровню моря атмосферное давление.
Po - Атмосферное давление - измеренное на уровне метеостанции атмосферное давление.
Tmin - Минимальная температура - минимум температуры воздуха на высоте 2 м над землей.
Tmax - Максимальная температура - максимум температуры воздуха на высоте 2 м над землей.
R - Количество осадков - Количество выпавших осадков за период времени, мм. При наведении курсора мыши на число - период времени, за который выпало указанное количество осадков.
R24 - Количество осадков - Количество выпавших осадков за 24 часа, мм.
S - Снежный покров - Высота снежного покрова, см. При наведении курсора мыши на число - состояние снежного покрова и степень покрытия местности в баллах.